[[{"header":{"parameterUnit":"m.s-1","parameterCategory":1,"la1":30.2991,"la2":30.254,"lo1":-89.0895,"lo2":-89.0444,"dy":0.0017,"dx":0.0017,"nx":28,"ny":28,"refTime":"2023-08-21T03:00:00:Z","depth":0,"parameterNumber":2,"parameterNumberName":"U-component_of_WINDS"},"data":[0,0,0,0,0,0,0,0,0,0,0,0,0,0,0,0,0,0,0,0,0,0,0,0,0,0,0,0,0,0,0,0,0,0,0,0,0,0,0,0,0,0,0,0,0,0,0,0,0,0,0,0,0,0,0,0,0,0,-0.6901,-0.6899,0,-0.6737,-0.6735,-0.6734,-0.672,-0.6722,-0.6724,-0.6725,-0.6555,-0.6549,-0.6543,0,0,0,0,0,0,0,0,0,0,0,0,0,-0.7201,-0.7196,-0.6901,-0.6899,-0.6897,-0.6738,-0.6735,-0.6733,-0.672,-0.6722,-0.6724,-0.6726,-0.6557,-0.655,-0.6542,0,0,0,0,0,0,0,0,0,0,0,0,0,-0.7058,-0.7194,-0.6902,-0.6871,-0.6867,-0.6738,-0.6735,-0.6732,-0.6719,-0.6722,-0.6725,-0.6727,-0.656,-0.6551,-0.6541,-0.6431,0,0,-0.6513,-0.6509,0,0,0,0,0,0,0,0,-0.7066,-0.7046,-0.6878,-0.6873,-0.6868,-0.6752,-0.6779,-0.6631,-0.6719,-0.6775,-0.6725,-0.6728,-0.6618,-0.6604,-0.6568,-0.6423,-0.6415,-0.6512,-0.6507,-0.6503,-0.65,0,0,0,0,0,0,0,-0.7076,-0.7053,-0.6836,-0.6875,-0.6869,-0.6865,-0.6848,-0.6751,-0.6684,-0.6771,-0.6769,-0.675,-0.6616,-0.6577,-0.6564,-0.6413,-0.6512,-0.6504,-0.6498,-0.6495,-0.617,-0.6167,0,0,0,0,0,0,-0.7092,-0.7062,-0.6842,-0.6831,-0.6976,-0.6858,-0.6838,-0.6786,-0.6685,-0.6672,-0.6748,-0.675,-0.6591,-0.6574,-0.6558,-0.6422,-0.6503,-0.6494,-0.6489,-0.6173,-0.6169,-0.6166,0,0,0,0,0,0,-0.7098,-0.7072,-0.6848,-0.6946,-0.6917,-0.685,-0.6792,-0.6782,-0.6742,-0.6668,-0.6656,-0.672,-0.6593,-0.6571,-0.6463,-0.6416,-0.649,-0.6481,-0.6177,-0.6172,-0.6168,-0.615,0,0,0,0,0,0,-0.7107,-0.7075,-0.7032,-0.6945,-0.6912,-0.6756,-0.6789,-0.6777,-0.6727,-0.6728,-0.6638,-0.6626,-0.6593,-0.6477,-0.6454,-0.6405,-0.6474,-0.6181,-0.6175,-0.6169,-0.6154,-0.6145,-0.6138,0,0,0,0,0,-0.7118,-0.7033,-0.703,-0.7003,-0.6858,-0.6754,-0.6735,-0.6699,-0.6723,-0.668,-0.6632,-0.6629,-0.6425,-0.6466,-0.644,-0.6387,-0.6183,-0.6176,-0.617,-0.6158,-0.6147,-0.6138,0,0,0,0,0,0,-0.7114,-0.7021,-0.7017,-0.6901,-0.6836,-0.6752,-0.6696,-0.6688,-0.6614,-0.6618,-0.6576,-0.6556,-0.645,-0.6408,-0.6455,-0.6275,-0.6307,-0.6294,-0.6307,-0.6296,-0.6288,-0.63,-0.6466,0,0,0,0,0,-0.7101,-0.7025,-0.6947,-0.6852,-0.682,-0.6764,-0.6717,-0.6695,-0.6625,-0.6597,-0.6542,-0.6473,-0.6394,-0.6342,-0.6265,-0.6148,-0.6129,-0.6099,-0.6091,-0.6084,-0.6074,-0.601,-0.5997,-0.6144,-0.6144,-0.6144,0,0,-0.7071,-0.701,-0.6964,-0.685,-0.6797,-0.6719,-0.674,-0.6656,-0.6598,-0.6584,-0.648,-0.6436,-0.6357,-0.6245,-0.6193,-0.6206,-0.6029,-0.6076,-0.6071,-0.6064,-0.6002,-0.5988,-0.5976,-0.6139,-0.614,-0.6141,0,0,-0.6977,-0.6923,-0.6839,-0.6786,-0.6705,-0.6668,-0.6649,-0.6565,-0.6537,-0.6431,-0.642,-0.6349,-0.6213,-0.6158,-0.6112,-0.5998,-0.5993,-0.5974,-0.593,-0.5868,-0.5857,-0.5846,-0.5807,-0.5793,-0.5964,-0.5964,-0.5964,0,-0.6949,-0.6832,-0.6797,-0.6714,-0.6664,-0.6649,-0.6564,-0.6513,-0.6411,-0.6377,-0.6394,-0.6224,-0.617,-0.6045,-0.6017,-0.598,-0.5956,-0.5984,-0.5861,-0.5851,-0.584,-0.5802,-0.5787,-0.5962,-0.5962,-0.5963,-0.5963,0,-0.6803,-0.6722,-0.6664,-0.6567,-0.6511,-0.6427,-0.6379,-0.6326,-0.631,-0.6271,-0.6164,-0.6099,-0.6009,-0.5977,-0.596,-0.585,-0.5861,-0.587,-0.5901,-0.5825,-0.5789,-0.5774,-0.596,-0.596,-0.5961,-0.5961,0,0,-0.6702,-0.6588,-0.6567,-0.6524,-0.6434,-0.637,-0.6286,-0.6199,-0.6155,-0.6085,-0.6014,-0.59,-0.5908,-0.5856,-0.5832,-0.5778,-0.5693,-0.5793,-0.5791,-0.5778,-0.5569,-0.5564,-0.5547,-0.5689,-0.5686,-0.5684,-0.5576,0,-0.6599,-0.6449,-0.6416,-0.6287,-0.6212,-0.6197,-0.6124,-0.6061,-0.6023,-0.5953,-0.5911,-0.5831,-0.5848,-0.5816,-0.5762,-0.5715,-0.5651,-0.5722,-0.5623,-0.5619,-0.5644,-0.5528,-0.5521,-0.5423,-0.5562,-0.5559,-0.5557,0,-0.6458,-0.6386,-0.6251,-0.6172,-0.6139,-0.6074,-0.5992,-0.5926,-0.5854,-0.5831,-0.5773,-0.5755,-0.5667,-0.5703,-0.5581,-0.563,-0.5588,-0.5558,-0.5554,-0.5544,-0.5584,-0.5516,-0.5391,-0.5377,-0.5534,-0.5536,-0.5538,0,-0.6399,-0.6269,-0.6171,-0.6134,-0.604,-0.5994,-0.5953,-0.5884,-0.5834,-0.5762,-0.573,-0.5648,-0.5604,-0.5541,-0.5502,-0.5531,-0.5383,-0.5415,-0.5362,-0.5363,-0.5332,-0.5334,-0.5199,-0.5303,-0.5303,-0.5303,-0.5304,0,-0.6287,-0.6205,-0.6143,-0.6083,-0.5991,-0.5953,-0.5862,-0.5821,-0.576,-0.5692,-0.5673,-0.5609,-0.5561,-0.549,-0.5459,-0.5364,-0.5343,-0.5322,-0.5315,-0.5324,-0.5327,-0.5296,-0.5302,-0.5299,-0.53,-0.5301,-0.5302,0,-0.6206,-0.6161,-0.6054,-0.5974,-0.5952,-0.5888,-0.5819,-0.576,-0.5723,-0.5636,-0.5614,-0.5554,-0.547,-0.5425,-0.5319,-0.5298,-0.5192,-0.5188,-0.5217,-0.5214,-0.5163,-0.5169,-0.5004,-0.4981,-0.5099,-0.5098,-0.5097,0,-0.6138,-0.6075,-0.5989,-0.5942,-0.59,-0.5825,-0.5775,-0.5735,-0.5683,-0.5597,-0.5549,-0.5464,-0.5395,-0.5261,-0.5208,-0.5128,-0.5122,-0.507,-0.511,-0.5122,-0.5123,-0.5128,-0.5122,-0.5063,-0.5062,-0.5061,-0.5061,0,-0.6023,-0.6004,-0.5933,-0.5853,-0.5794,-0.5729,-0.5665,-0.5628,-0.5577,-0.552,-0.5435,-0.5381,-0.5274,-0.519,-0.5106,-0.5063,-0.5053,-0.5049,-0.5032,-0.5041,-0.5061,-0.5051,-0.5199,-0.5052,-0.5053,-0.5054,-0.5054,-0.5055,-0.5947,-0.589,-0.5821,-0.5742,-0.569,-0.5631,-0.5573,-0.5528,-0.5456,-0.5367,-0.5347,-0.5258,-0.5189,-0.5075,-0.5029,-0.4959,-0.4969,-0.4945,-0.4939,-0.4934,-0.4932,-0.5072,-0.4943,-0.4943,-0.4943,-0.4943,-0.4943,0,-0.5831,-0.5787,-0.5714,-0.5626,-0.5564,-0.5561,-0.5491,-0.5439,-0.536,-0.5297,-0.5229,-0.5132,-0.5051,-0.4992,-0.491,-0.4865,-0.4858,-0.4844,-0.4848,-0.4838,-0.4927,-0.495,-0.4851,-0.4851,-0.4851,-0.4851,-0.4851,-0.4851,-0.5764,-0.5669,-0.5643,-0.5522,-0.5477,-0.539,-0.535,-0.5295,-0.5245,-0.5137,-0.507,-0.5033,-0.4971,-0.4885,-0.4811,-0.4795,-0.4766,-0.4753,-0.4738,-0.4822,-0.4832,-0.4841,-0.4863,-0.4747,-0.4747,-0.4655,-0.4654,-0.4653]},{"header":{"parameterUnit":"m.s-1","parameterCategory":1,"la1":30.2991,"la2":30.254,"lo1":-89.0895,"lo2":-89.0444,"dy":0.0017,"dx":0.0017,"nx":28,"ny":28,"refTime":"2023-08-21T03:00:00:Z","depth":0,"parameterNumber":3,"parameterNumberName":"V-component_of_WINDS"},"data":[0,0,0,0,0,0,0,0,0,0,0,0,0,0,0,0,0,0,0,0,0,0,0,0,0,0,0,0,0,0,0,0,0,0,0,0,0,0,0,0,0,0,0,0,0,0,0,0,0,0,0,0,0,0,0,0,0,0,0.9396,0.9396,0,0.938,0.938,0.938,0.9392,0.9393,0.9393,0.9394,0.9375,0.9374,0.9373,0,0,0,0,0,0,0,0,0,0,0,0,0,0.9433,0.9432,0.9396,0.9396,0.9395,0.938,0.938,0.938,0.9392,0.9393,0.9393,0.9394,0.9376,0.9374,0.9373,0,0,0,0,0,0,0,0,0,0,0,0,0,0.9417,0.9432,0.9396,0.94,0.94,0.938,0.938,0.938,0.9392,0.9393,0.9393,0.9394,0.9376,0.9375,0.9373,0.9348,0,0,0.9369,0.9368,0,0,0,0,0,0,0,0,0.9418,0.9416,0.9399,0.9399,0.94,0.9389,0.9386,0.9369,0.9392,0.9395,0.9394,0.9395,0.9379,0.9377,0.9373,0.9347,0.9346,0.9368,0.9368,0.9367,0.9367,0,0,0,0,0,0,0,0.9419,0.9416,0.9389,0.9399,0.9399,0.9401,0.94,0.9383,0.9383,0.9395,0.9395,0.9394,0.9379,0.9374,0.9372,0.9346,0.9369,0.9367,0.9366,0.9366,0.9297,0.9296,0,0,0,0,0,0,0.942,0.9417,0.939,0.9389,0.9411,0.94,0.9398,0.9391,0.9383,0.9382,0.9393,0.9394,0.9376,0.9374,0.9372,0.934,0.9367,0.9366,0.9365,0.9298,0.9297,0.9296,0,0,0,0,0,0,0.9421,0.9418,0.9391,0.9403,0.94,0.9398,0.9391,0.9391,0.9386,0.9382,0.9381,0.9388,0.9377,0.9374,0.9353,0.9339,0.9365,0.9364,0.9299,0.9297,0.9296,0.9277,0,0,0,0,0,0,0.9422,0.9418,0.9409,0.9403,0.9399,0.9373,0.939,0.939,0.9383,0.9385,0.9377,0.9376,0.9377,0.9356,0.9352,0.9338,0.9362,0.93,0.9298,0.9297,0.9279,0.9275,0.9272,0,0,0,0,0,0.9423,0.9404,0.9409,0.9405,0.9388,0.9373,0.937,0.9373,0.9382,0.9372,0.937,0.9376,0.9342,0.9353,0.9349,0.9335,0.9301,0.9299,0.9297,0.928,0.9276,0.9272,0,0,0,0,0,0,0.9408,0.9404,0.9408,0.9387,0.938,0.9375,0.9363,0.9368,0.9358,0.936,0.9362,0.936,0.9338,0.9335,0.9348,0.9309,0.9323,0.932,0.9312,0.9307,0.9304,0.9304,0.9361,0,0,0,0,0,0.9402,0.9391,0.9387,0.9369,0.9365,0.9365,0.9358,0.936,0.9353,0.935,0.9346,0.9337,0.9325,0.9316,0.9304,0.9279,0.9276,0.9267,0.9263,0.926,0.9257,0.9241,0.9236,0.9289,0.9289,0.9289,0,0,0.939,0.9386,0.9379,0.9365,0.936,0.9347,0.9362,0.9348,0.9337,0.9347,0.9327,0.9324,0.9315,0.9292,0.9281,0.9288,0.9242,0.9258,0.9255,0.9253,0.9238,0.9233,0.9228,0.9287,0.9287,0.9288,0,0,0.936,0.9357,0.934,0.9335,0.9327,0.9327,0.9323,0.9317,0.9315,0.9295,0.9302,0.9289,0.9268,0.9261,0.9254,0.9221,0.9225,0.9217,0.9198,0.9182,0.9178,0.9174,0.9159,0.9154,0.9214,0.9214,0.9214,0,0.9346,0.9327,0.9331,0.9316,0.9309,0.9318,0.93,0.9294,0.9283,0.9277,0.9286,0.9257,0.9252,0.9226,0.9218,0.9213,0.9207,0.9217,0.9178,0.9174,0.9171,0.9157,0.9152,0.9213,0.9213,0.9213,0.9213,0,0.9308,0.9294,0.9282,0.927,0.9262,0.9246,0.9246,0.9237,0.924,0.9239,0.9217,0.9212,0.9198,0.9192,0.9195,0.9165,0.9169,0.9178,0.9192,0.9164,0.9151,0.9146,0.9211,0.9211,0.9212,0.9212,0,0,0.9267,0.9258,0.9253,0.9247,0.9239,0.9228,0.9212,0.9199,0.919,0.9182,0.9166,0.9147,0.9155,0.9147,0.9149,0.9136,0.9106,0.9146,0.9145,0.9136,0.907,0.9062,0.9056,0.9111,0.911,0.9109,0.907,0,0.9235,0.9206,0.9209,0.9181,0.9168,0.9176,0.9161,0.9154,0.9152,0.9139,0.9137,0.9122,0.9134,0.9129,0.9117,0.9113,0.9093,0.9116,0.9094,0.9093,0.9093,0.905,0.9041,0.9005,0.9065,0.9065,0.9064,0,0.9194,0.9184,0.9155,0.9147,0.9141,0.9128,0.9115,0.9104,0.9095,0.9094,0.9085,0.909,0.9071,0.9087,0.906,0.9075,0.9067,0.9063,0.9062,0.9058,0.9075,0.9042,0.8994,0.8987,0.9056,0.9057,0.9058,0,0.9164,0.9144,0.9123,0.9118,0.9109,0.9099,0.9095,0.9087,0.9078,0.9067,0.9061,0.9048,0.904,0.9029,0.9028,0.9041,0.9,0.9017,0.8997,0.8997,0.8986,0.8986,0.8933,0.8985,0.8985,0.8985,0.8985,0,0.9126,0.9107,0.9109,0.9096,0.9074,0.9077,0.9056,0.9052,0.9045,0.903,0.9038,0.9023,0.9025,0.901,0.901,0.8986,0.8983,0.898,0.898,0.8978,0.8978,0.897,0.8972,0.8984,0.8984,0.8984,0.8984,0,0.9088,0.9089,0.9066,0.906,0.9058,0.9042,0.9036,0.9022,0.9021,0.9002,0.8998,0.8995,0.8978,0.8977,0.8958,0.8957,0.8927,0.8931,0.893,0.893,0.8909,0.891,0.8847,0.8838,0.8898,0.8898,0.8897,0,0.9063,0.9048,0.904,0.9031,0.9026,0.9012,0.9003,0.9006,0.8996,0.8984,0.8971,0.8955,0.8942,0.8914,0.8909,0.8894,0.8895,0.8875,0.8893,0.8891,0.8891,0.8891,0.8888,0.887,0.8869,0.8869,0.8868,0,0.9017,0.9018,0.9005,0.8992,0.8981,0.8971,0.8961,0.8953,0.8955,0.8943,0.8926,0.8915,0.8895,0.8878,0.8862,0.8857,0.8861,0.8863,0.8857,0.8853,0.8852,0.885,0.8917,0.8864,0.8864,0.8865,0.8865,0.8865,0.8983,0.8969,0.8961,0.8946,0.8939,0.893,0.8916,0.8913,0.8899,0.8883,0.8886,0.8865,0.8855,0.8835,0.8828,0.8812,0.8818,0.8811,0.8808,0.8805,0.8801,0.8857,0.8809,0.8809,0.8809,0.881,0.881,0,0.8935,0.893,0.8916,0.8902,0.889,0.8898,0.8887,0.8876,0.8858,0.8849,0.8836,0.8815,0.8798,0.8792,0.8775,0.8762,0.8764,0.8757,0.8757,0.8755,0.8798,0.8803,0.8756,0.8756,0.8756,0.8756,0.8756,0.8756,0.8908,0.8885,0.8885,0.8857,0.8853,0.8833,0.8826,0.8817,0.8809,0.8785,0.8771,0.8768,0.8759,0.8742,0.8726,0.8724,0.8716,0.8708,0.8707,0.8747,0.8752,0.8757,0.8762,0.8707,0.8707,0.8665,0.8665,0.8664]}]]